Flag for Poland Weather past 2 weeks in Zielona Góra, Poland

Now
41 °F

Fog.


Feels Like: 41 °F
Forecast: 43 / 53 °F
Wind: 2 mph from Southeast

Location: Zielona Gora

Current Time: Oct 25, 2014 at 7:11:30 PM

Latest Report: Oct 25, 2014 at 6:00 PM


Visibility: 2 mi

Pressure: 30.20 "Hg

Humidity: 93%

Dew point: 39 °F

Location of Zielona GóraLocation

Historic Weather in Zielona Góra — Graph

°F

Zielona Góra temperature yesterday

Maximum temperature yesterday: 41 °F (at 1:00 AM)
Minimum temperature yesterday: 38 °F (at 3:00 PM)
Average temperature yesterday: 40 °F

Past Weeks' High & Low Weather Summary

 TemperatureHumidityPressure
High69 °F (Oct 19, 2:00 PM)100% (Oct 22, 7:00 PM)30.34 "Hg (Oct 22, 7:00 PM)
Low31 °F (Oct 25, 7:00 AM)61% (Oct 19, 3:00 PM)29.50 "Hg (Oct 21, 11:00 PM)
Average53 °F91%29.94 "Hg
* Reported Oct 10 5:00 PM — Oct 25 5:00 PM, Zielona Góra, Weather by CustomWeather, © 2014

Note: Actual official high and low records may vary slightly from our data, if they occured in-between our weather recording intervals... More about our weather records

Advertising

Zielona Góra weather history for previous 24 hours

 ConditionsComfort  
Time TempWeatherWind HumidityBarometerVisibility
5:00 PM
Oct 25
44 °FFog.2 mph89%30.19 "Hg4 mi
4:00 PM46 °FFog.2 mph84%30.19 "Hg5 mi
3:00 PM43 °FFog.2 mph87%30.19 "Hg4 mi
2:00 PM41 °FFog.3 mph91%30.20 "Hg4 mi
1:00 PM40 °FFog.3 mph95%30.21 "Hg2 mi
12:00 PM38 °FFog.2 mph99%30.22 "Hg2 mi
11:00 AM35 °FFog.5 mph100%30.21 "Hg1 mi
10:00 AM33 °FFog.5 mph100%30.22 "Hg1 mi
9:00 AM32 °FFog.5 mph99%30.22 "Hg1 mi
8:00 AM31 °FFog.5 mph99%30.22 "Hg1 mi
7:00 AM31 °FFog.3 mph100%30.22 "Hg1 mi
6:00 AM31 °FFog.3 mph99%30.23 "Hg1 mi
5:00 AM32 °FFog.3 mph99%30.23 "Hg1 mi
4:00 AM33 °FFog.3 mph98%30.24 "Hg1 mi
3:00 AM34 °FFog.3 mph98%30.24 "Hg1 mi
2:00 AM35 °FFog.3 mph98%30.25 "Hg1 mi
1:00 AM37 °FFog.3 mph98%30.26 "Hg1 mi
12:00 AM39 °FFog.3 mph97%30.27 "Hg1 mi
11:00 PM
Oct 24
40 °FFog.3 mph96%30.27 "Hg2 mi
10:00 PM40 °FFog.3 mph96%30.28 "Hg2 mi
9:00 PM40 °FFog.3 mph99%30.28 "Hg2 mi
8:00 PM39 °FFog.3 mph99%30.29 "Hg1 mi
7:00 PM39 °FFog.3 mph100%30.29 "Hg1 mi
Weather by CustomWeather, © 2014

See weather overviewHow to use our weather pages